User: anonymous   Login
Location: Vancouver
(49.2500°N, 123.1330°W)
Time: 10:51:13
(UTC-07:00)
Language:

AO-27 - Orbit

View from above orbital plane
View from above orbital plane
View from above satellite
View from above satellite

Ground track
Ground track

The orbit data is extracted from the following two-line orbital elements,

1 22825U 93061C   16209.80854517  .00000012  00000-0  22166-4 0  9998
2 22825 098.7624 166.3137 0008045 191.6578 168.4419 14.29962412190775
Epoch (UTC): 27 July 2016 19:24:18
Eccentricity: 0.0008045
inclination: 98.7624°
perigee height: 786 km
apogee height: 797 km
right ascension of ascending node: 166.3137°
argument of perigee: 191.6578°
revolutions per day: 14.29962412
mean anomaly at epoch: 168.4419°
orbit number at epoch: 19077

The dashed part of the orbit path shows where the satellite is in the earth's shadow,  

DLR